Regional Weather Roundup
Issued by NWS Charleston, SC

Current Version | Previous Version | Text Only | Print | Product List | Glossary Off
Versions: 1 2 3 4 5 6 7 8 9 10 11 12 13 14 15 16 17 18 19 20 21 22 23 24 25 26 27 28 29 30 31 32 33 34 35 36 37 38 39 40 41 42 43 44 45 46 47 48 49 50
000 ASUS42 KCHS 202012 RWRCHS REGIONAL WEATHER ROUNDUP NATIONAL WEATHER SERVICE CHARLESTON SC 400 PM EDT SUN AUG 20 2017 NOTE: "FAIR" INDICATES FEW OR NO CLOUDS BELOW 12,000 FEET WITH NO SIGNIFICANT WEATHER AND/OR OBSTRUCTIONS TO VISIBILITY. NOT ALL STATIONS ARE QUALITY CONTROLLED. USE DATA WITH CAUTION... ESPECIALLY DEWPOINT OBSERVATIONS. SCZ027-030-031-034>040-042>050-202100- ...SOUTHEAST SOUTH CAROLINA... CITY SKY/WX TMP DP RH WIND PRES REMARKS N CHARLESTON RAIN 84 76 76 E8 30.05F HX 93 WATERFRONT PRK N/A 88 77 69 E7 29.90F HX 100 JOHNS ISLAND FAIR 90 79 70 SE8 30.05F HX 105 PINOPOLIS N/A 91 72 52 VRB2 29.98F HX 98 MONCKS CORNER FAIR 91 66 43 SE7 30.05S HX 94 SUMMERVILLE FAIR 93 70 46 NE3 30.05F HX 99 BEAUFORT MCAS PTSUNNY 88 75 65 VRB3 30.04F HX 97 BEAUFORT ARPT FAIR 90 77 66 SE6 30.04F HX 102 HILTON HEAD IS MOSUNNY 88 79 74 S12 30.06F HX 102 WALTERBORO CLOUDY 91 73 55 E6 30.05F HX 100 ALLENDALE NOT AVBL ...SOUTHERN MIDLANDS AND PEE DEE... CITY SKY/WX TMP DP RH WIND PRES REMARKS GEORGETOWN FAIR 88 79 74 SE10 30.07F HX 102 KINGSTREE FAIR 91 70 49 CALM 30.04F HX 97 ORANGEBURG MOSUNNY 94 69 44 SE6 30.05F HX 99 BARNWELL FAIR 95 72 46 E5 30.04F HX 103 AIKEN FAIR 90 68 48 SE5 30.08F HX 93 MANNING FAIR 93 75 55 S15 30.04F HX 104 COLUMBIA PTSUNNY 95 66 38 E8 30.04F HX 98 SUMTER MOSUNNY 96 66 37 E7 30.02F HX 99 FLORENCE CLOUDY 93 71 48 E7 30.05F HX 100 MYRTLE BEACH MOSUNNY 86 79 79 MISG 30.07F HX 99 N MYRTLE BEACH MOSUNNY 86 79 79 S8 30.06F HX 99 $$ GAZ063-065-086>088-099>101-113>116-118-119-134>141-150-202100- ...SOUTHEAST GEORGIA... CITY SKY/WX TMP DP RH WIND PRES REMARKS SAVANNAH ARPT CLOUDY 88 76 67 SE10 30.04F HX 99 HUNTER AAF LGT RAIN 89 76 65 SE8 30.01F HX 100 FORT STEWART CLOUDY 88 77 68 SE10 30.01F HX 100 STATESBORO SUNNY 96 63 33 NE3 30.02F HX 97 SYLVANIA CLEAR 95 74 49 CALM 30.04F HX 106 CLAXTON FAIR 97 73 45 NE7 30.01F HX 107 ...CSRA...CENTRAL AND FAR SOUTHEAST GEORGIA... CITY SKY/WX TMP DP RH WIND PRES REMARKS THOMSON MOSUNNY 94 69 43 NE6 30.10F HX 99 AUGUSTA-BUSH MOSUNNY 95 70 44 S6 30.03F HX 101 AUGUSTA-DANIEL MOSUNNY 97 67 37 SE8 30.05F HX 101 SWAINSBORO FAIR 95 68 41 N6 30.04F HX 99 VIDALIA SUNNY 99 68 36 NE8 30.02F HX 104 EASTMAN FAIR 97 39 13 W3 30.05F HX 92 HAZLEHURST FAIR 96 46 17 NW5 30.01F HX 92 ALMA CLOUDY 98 69 38 VRB5 30.00F HX 104 WAYCROSS PTSUNNY 97 66 35 N12 30.00F HX 100 JESUP FAIR 84 72 65 SE7 30.04S BAXLEY FAIR 93 64 38 CALM 30.01F HX 95 BRUNSWICK PTSUNNY 90 73 58 SE7 30.05S HX 98 SAINT SIMONS MOSUNNY 89 77 67 SE14 30.03F HX 101 $$ SCZ027-028-034-036>038-045-046-048>050-GAZ119-141-202100- ...LAKE AND SUPPLEMENTAL COASTAL OBSERVATIONS... STATION/POSITION TIME TEMP WIND PRES WAVE SWELL AIR SEA DIR/SP/G HT/PER HT/PER/DIR (UTC) (F) (DEG/KT/KT) (MB) (FT/S) (FT/S/D) WINYAH BAY 1845 86 120/ 7 1018.0 LAKE MURRAY 1920 92 200/ 5/ 6 1016.3 ACE BASIN NERRS 1845 92 120/ 3 1018.0 FORT PULASKI 1936 89 88 160/ 5/ 9 1017.8F SAPELO ISLAND 1900 92 120/ 5 1018.0 $$ ANZ835-935-AMZ111-154-330-350-352-354-370-450-454-472-202100- ...C-MAN AND BUOY OBSERVATIONS... STATION/POSITION TIME TEMP WIND PRES WAVE SWELL AIR SEA DIR/SP/G HT/PER HT/PER/DIR (UTC) (F) (DEG/KT/KT) (MB) (FT/S) (FT/S/D) BUOY 41004 1950 85 85 150/ 4/ 6 1017.5F 3/ 8 2/120/ 8 BUOY 41008 1950 85 87 160/ 10/ 10 1017.2F 2/ 8 2/120/ 8 FOLLY BEACH CMAN 1900 86 140/ 8/ 9 1018.9F CAPERS NEARSHORE 1908 87 88 160/ 4/ 8 1018.2F FRIPP NEARSHORE 1908 85 160/ 8/ 10 1017.7F STATION/POSITION TIME TEMP WIND PRES WAVE SWELL AIR SEA DIR/SP/G HT/PER HT/PER/DIR (UTC) (F) (DEG/KT/KT) (MB) (FT/S) (FT/S/D) 5E ST. MARYS GA 1930 85 N/A 2/ 8 FRYING PAN BUOY 1950 85 86 170/ 4/ 4 1018.1F 3/ 8 2/120/ 8 BUOY 41025 1950 81 83 30/ 2/ 4 1018.8F 2/ 8 2/130/ 8 CAPE LOOKOUT NC 1900 82 100/ 4/ 4 1018.5F BUOY 41002 1950 83 86 140/ 8/ 10 1019.4F 3/ 8 3/100/ 8 BUOY 41010 1950 78 85 200/ 4/ 6 1019.4R 2/ 9 2/110/ 9 ST AUGUSTINE FL 2000 83 84 130/ 11/ 13 1017.3F $$

USA.gov is the U.S. government's official web portal to all federal, state and local government web resources and services.